Location: Keppel Henge
(44.7900°N, 80.9447°W)
Time: 11:07:29
(UTC-04:00)

Envisat - Pass Details

Date: 16 October 2017
Orbit: 764 x 766 km, 98.2° (Epoch: 17 October)

Event Time Altitude Azimuth Distance (km) Brightness Sun altitude
Exits shadow 20:46:16 57° 60° (ENE) 904 3.0 -23.7°
Drops below altitude 10° 20:51:02 10° 354° (N) 2,311 5.7 -24.5°
Sets 20:53:23 0° 351° (N) 3,242 6.5 -24.9°
